Voltar ao catálogo

SCOUT G-1 R/B

AtivoPO
NORAD 19072·ROCKET BODY·🇺🇸 United States

Lançado Apr 26, 1988 de Vandenberg Space Force Base

Loading…

Próximas Passagens (próximas 24 horas)

TLE

AtualizadoSource: Space-Track

Época: Sep 14, 2026, 15:07 UTC

1 19072U 88033C   26257.63012514  .00000026  00000-0  33870-4 0  9998
2 19072  90.3356  24.9071 0190024 148.3460 225.1665 13.27506467858821

Acompanhe SCOUT G-1 R/B em tempo real com AllMySat

Download on the App Store